RYR22WJ EIDW-EGCC

Flight info

Callsign RYR22WJ
Flight time 0h 33m
Altitude 19000
Route BOFUM3J BOFUM Q37 MALUD MALUD1M
Aircraft B38M/M-SDE1FGHILORVWXY/HB1

Departure

Time 2026-05-07 16:22
Airport Dublin Airport (EIDW)

Arrival

Time 2026-05-07 16:56
Airport Manchester Airport (EGCC)
Time Latitude Longitude Altitude Speed Heading
2026-05-07 15:55 53.43103 -6.24829 218 ft 0 kts 185°
2026-05-07 16:10 53.43106 -6.24828 213 ft 3 kts 185°
2026-05-07 16:10 53.43132 -6.24824 213 ft 4 kts 185°
2026-05-07 16:11 53.43159 -6.24820 213 ft 3 kts 185°
2026-05-07 16:11 53.43178 -6.24814 217 ft 4 kts 213°
2026-05-07 16:11 53.43185 -6.24787 218 ft 3 kts 275°
2026-05-07 16:11 53.43183 -6.24751 213 ft 0 kts 275°
2026-05-07 16:14 53.43183 -6.24754 213 ft 1 kts 275°
2026-05-07 16:14 53.43186 -6.24799 216 ft 8 kts 275°
2026-05-07 16:14 53.43194 -6.24948 213 ft 17 kts 275°
2026-05-07 16:15 53.43207 -6.25192 213 ft 23 kts 275°
2026-05-07 16:15 53.43178 -6.25456 216 ft 20 kts 270°
2026-05-07 16:15 53.43282 -6.25596 216 ft 21 kts 338°
2026-05-07 16:15 53.43364 -6.25653 219 ft 0 kts 336°
2026-05-07 16:19 53.43382 -6.25660 216 ft 7 kts 356°
2026-05-07 16:19 53.43405 -6.25533 213 ft 20 kts 95°
2026-05-07 16:19 53.43386 -6.25221 221 ft 34 kts 96°
2026-05-07 16:20 53.43362 -6.24767 220 ft 30 kts 95°
2026-05-07 16:20 53.43351 -6.24539 213 ft 1 kts 76°
2026-05-07 16:20 53.43353 -6.24525 213 ft 3 kts 85°
2026-05-07 16:20 53.43345 -6.24438 214 ft 14 kts 98°
2026-05-07 16:21 53.43332 -6.24226 213 ft 25 kts 96°
2026-05-07 16:21 53.43319 -6.23923 218 ft 18 kts 80°
2026-05-07 16:21 53.43443 -6.23847 211 ft 23 kts
2026-05-07 16:21 53.43495 -6.24020 212 ft 25 kts 275°
2026-05-07 16:22 53.43534 -6.24764 219 ft 106 kts 276°
2026-05-07 16:22 53.43617 -6.26419 305 ft 168 kts 273°
2026-05-07 16:22 53.43725 -6.28450 1114 ft 182 kts 271°
2026-05-07 16:22 53.43852 -6.30517 2363 ft 177 kts 274°
2026-05-07 16:23 53.44366 -6.32590 2782 ft 219 kts 307°
2026-05-07 16:23 53.45682 -6.33941 3702 ft 223 kts 329°
2026-05-07 16:23 53.47148 -6.34952 4541 ft 235 kts 344°
2026-05-07 16:23 53.48774 -6.35173 5524 ft 236 kts 360°
2026-05-07 16:24 53.50435 -6.34701 6202 ft 255 kts 24°
2026-05-07 16:24 53.51781 -6.32662 6791 ft 268 kts 61°
2026-05-07 16:24 53.52338 -6.29739 7874 ft 266 kts 85°
2026-05-07 16:24 53.52433 -6.26598 8128 ft 271 kts 92°
2026-05-07 16:25 53.52432 -6.23433 8102 ft 275 kts 93°
2026-05-07 16:25 53.52409 -6.20147 8179 ft 285 kts 94°
2026-05-07 16:25 53.52372 -6.16794 8295 ft 288 kts 95°
2026-05-07 16:25 53.52356 -6.15524 8355 ft 288 kts 94°
2026-05-07 16:26 53.52309 -6.12251 8506 ft 290 kts 95°
2026-05-07 16:26 53.52273 -6.10005 8609 ft 291 kts 95°
2026-05-07 16:26 53.52132 -6.06609 8912 ft 290 kts 105°
2026-05-07 16:26 53.51659 -6.03352 9912 ft 289 kts 108°
2026-05-07 16:27 53.51007 -5.98858 10687 ft 310 kts 107°
2026-05-07 16:27 53.50481 -5.95217 11100 ft 330 kts 106°
2026-05-07 16:27 53.49929 -5.91387 11654 ft 344 kts 106°
2026-05-07 16:27 53.49361 -5.87452 12417 ft 348 kts 106°
2026-05-07 16:28 53.49112 -5.84720 12961 ft 356 kts 94°
2026-05-07 16:28 53.49443 -5.80582 13769 ft 364 kts 78°
2026-05-07 16:28 53.50016 -5.76470 14488 ft 368 kts 79°
2026-05-07 16:28 53.50601 -5.72261 15215 ft 373 kts 79°
2026-05-07 16:29 53.51200 -5.67998 15942 ft 377 kts 78°
2026-05-07 16:29 53.51809 -5.63664 16694 ft 381 kts 78°
2026-05-07 16:29 53.52421 -5.59302 17367 ft 386 kts 78°
2026-05-07 16:29 53.53040 -5.54890 18099 ft 389 kts 78°
2026-05-07 16:30 53.53604 -5.50420 18608 ft 395 kts 85°
2026-05-07 16:30 53.53594 -5.45827 18764 ft 392 kts 95°
2026-05-07 16:30 53.53496 -5.41240 18908 ft 396 kts 94°
2026-05-07 16:30 53.53392 -5.36522 18922 ft 412 kts 94°
2026-05-07 16:31 53.53275 -5.31640 18928 ft 422 kts 94°
2026-05-07 16:31 53.53151 -5.26691 18941 ft 426 kts 95°
2026-05-07 16:31 53.53025 -5.21783 18958 ft 426 kts 95°
2026-05-07 16:31 53.52892 -5.16737 18966 ft 426 kts 95°
2026-05-07 16:32 53.52739 -5.11766 18970 ft 426 kts 95°
2026-05-07 16:32 53.52587 -5.06853 18975 ft 426 kts 95°
2026-05-07 16:32 53.52431 -5.01886 18976 ft 426 kts 95°
2026-05-07 16:32 53.52275 -4.96932 18968 ft 426 kts 95°
2026-05-07 16:33 53.52116 -4.91964 18973 ft 426 kts 95°
2026-05-07 16:33 53.51955 -4.86994 18983 ft 426 kts 95°
2026-05-07 16:33 53.51792 -4.82026 18978 ft 426 kts 95°
2026-05-07 16:33 53.51628 -4.77063 18973 ft 426 kts 95°
2026-05-07 16:34 53.51460 -4.72093 18974 ft 426 kts 95°
2026-05-07 16:34 53.51291 -4.67125 18985 ft 426 kts 95°
2026-05-07 16:34 53.51121 -4.62163 18968 ft 426 kts 95°
2026-05-07 16:34 53.50948 -4.57219 18972 ft 426 kts 95°
2026-05-07 16:35 53.50773 -4.52252 18989 ft 425 kts 95°
2026-05-07 16:35 53.50596 -4.47296 18979 ft 425 kts 95°
2026-05-07 16:35 53.50417 -4.42335 18987 ft 425 kts 95°
2026-05-07 16:35 53.50236 -4.37374 18981 ft 425 kts 95°
2026-05-07 16:36 53.50053 -4.32417 18991 ft 425 kts 96°
2026-05-07 16:36 53.49867 -4.27460 18987 ft 425 kts 96°
2026-05-07 16:36 53.49680 -4.22501 18983 ft 425 kts 96°
2026-05-07 16:36 53.49491 -4.17552 18992 ft 425 kts 96°
2026-05-07 16:37 53.49299 -4.12591 18973 ft 425 kts 95°
2026-05-07 16:37 53.49106 -4.07638 18977 ft 425 kts 96°
2026-05-07 16:37 53.48912 -4.02704 18981 ft 424 kts 96°
2026-05-07 16:37 53.48695 -3.97760 18980 ft 423 kts 99°
2026-05-07 16:38 53.47948 -3.93021 18994 ft 420 kts 111°
2026-05-07 16:38 53.47021 -3.88360 18982 ft 420 kts 110°
2026-05-07 16:38 53.46103 -3.83815 19004 ft 402 kts 111°
2026-05-07 16:38 53.45204 -3.79445 18802 ft 391 kts 111°
2026-05-07 16:39 53.44316 -3.75152 18365 ft 388 kts 112°
2026-05-07 16:39 53.43435 -3.70910 17914 ft 385 kts 112°
2026-05-07 16:39 53.42558 -3.66696 17420 ft 382 kts 112°
2026-05-07 16:39 53.41689 -3.62501 16988 ft 378 kts 110°
2026-05-07 16:40 53.41241 -3.58147 16447 ft 381 kts 96°
2026-05-07 16:40 53.41039 -3.53736 16026 ft 379 kts 97°
2026-05-07 16:40 53.40838 -3.49353 15597 ft 376 kts 97°
2026-05-07 16:40 53.40641 -3.44991 15156 ft 374 kts 97°
2026-05-07 16:41 53.40447 -3.40668 14708 ft 371 kts 97°
2026-05-07 16:41 53.40251 -3.36363 14273 ft 369 kts 97°
2026-05-07 16:41 53.40057 -3.32092 13835 ft 367 kts 97°
2026-05-07 16:41 53.39863 -3.27845 13341 ft 362 kts 97°
2026-05-07 16:42 53.39673 -3.23730 12886 ft 347 kts 98°
2026-05-07 16:42 53.39489 -3.19781 12486 ft 334 kts 98°
2026-05-07 16:42 53.39319 -3.15979 12090 ft 321 kts 96°
2026-05-07 16:42 53.39538 -3.12805 11691 ft 319 kts 75°
2026-05-07 16:43 53.40540 -3.09520 11321 ft 311 kts 62°
2026-05-07 16:43 53.41622 -3.06443 11004 ft 305 kts 62°
2026-05-07 16:43 53.42690 -3.03375 10651 ft 303 kts 62°
2026-05-07 16:43 53.43738 -3.00361 10292 ft 295 kts 62°
2026-05-07 16:44 53.44762 -2.97409 9950 ft 291 kts 62°
2026-05-07 16:44 53.45771 -2.94493 9558 ft 287 kts 62°
2026-05-07 16:44 53.46763 -2.91621 9195 ft 283 kts 62°
2026-05-07 16:44 53.47750 -2.88763 8846 ft 283 kts 62°
2026-05-07 16:45 53.48736 -2.85903 8513 ft 283 kts 62°
2026-05-07 16:45 53.49719 -2.83050 8177 ft 282 kts 62°
2026-05-07 16:45 53.50697 -2.80205 7840 ft 281 kts 62°
2026-05-07 16:45 53.51684 -2.77334 7502 ft 279 kts 62°
2026-05-07 16:46 53.52635 -2.74564 7156 ft 275 kts 63°
2026-05-07 16:46 53.53476 -2.71701 6902 ft 264 kts 79°
2026-05-07 16:46 53.53550 -2.68735 6725 ft 250 kts 100°
2026-05-07 16:46 53.53362 -2.65809 6631 ft 254 kts 100°
2026-05-07 16:47 53.53154 -2.62853 6590 ft 261 kts 100°
2026-05-07 16:47 53.52940 -2.59766 6543 ft 264 kts 100°
2026-05-07 16:47 53.52725 -2.56694 6476 ft 265 kts 99°
2026-05-07 16:47 53.52511 -2.53617 6426 ft 266 kts 99°
2026-05-07 16:48 53.52297 -2.50540 6370 ft 265 kts 99°
2026-05-07 16:48 53.52081 -2.47465 6325 ft 265 kts 100°
2026-05-07 16:48 53.51865 -2.44390 6251 ft 265 kts 99°
2026-05-07 16:48 53.51648 -2.41317 6101 ft 265 kts 100°
2026-05-07 16:49 53.51430 -2.38252 5852 ft 265 kts 100°
2026-05-07 16:49 53.51215 -2.35218 5555 ft 264 kts 100°
2026-05-07 16:49 53.50994 -2.32116 5235 ft 264 kts 100°
2026-05-07 16:49 53.50774 -2.29059 4934 ft 263 kts 100°
2026-05-07 16:50 53.50558 -2.26050 4776 ft 256 kts 100°
2026-05-07 16:50 53.50350 -2.23161 4646 ft 249 kts 100°
2026-05-07 16:50 53.50144 -2.20313 4503 ft 242 kts 101°
2026-05-07 16:50 53.49943 -2.17563 4352 ft 234 kts 101°
2026-05-07 16:51 53.49748 -2.14883 4230 ft 226 kts 101°
2026-05-07 16:51 53.49559 -2.12282 4121 ft 216 kts 101°
2026-05-07 16:51 53.49364 -2.09870 4006 ft 206 kts 107°
2026-05-07 16:51 53.48679 -2.07888 3727 ft 196 kts 142°
2026-05-07 16:52 53.47454 -2.07002 3478 ft 187 kts 173°
2026-05-07 16:52 53.46200 -2.07162 3225 ft 182 kts 195°
2026-05-07 16:52 53.45095 -2.08111 3000 ft 178 kts 214°
2026-05-07 16:52 53.44178 -2.09510 2768 ft 174 kts 224°
2026-05-07 16:53 53.43401 -2.11005 2552 ft 170 kts 226°
2026-05-07 16:53 53.42657 -2.12514 2342 ft 166 kts 227°
2026-05-07 16:53 53.41938 -2.13988 2138 ft 158 kts 227°
2026-05-07 16:53 53.41270 -2.15362 1912 ft 146 kts 227°
2026-05-07 16:54 53.40640 -2.16661 1756 ft 140 kts 226°
2026-05-07 16:54 53.40030 -2.17915 1523 ft 139 kts 227°
2026-05-07 16:54 53.39417 -2.19180 1353 ft 140 kts 227°
2026-05-07 16:54 53.38810 -2.20436 1134 ft 137 kts 226°
2026-05-07 16:55 53.38213 -2.21660 960 ft 140 kts 228°
2026-05-07 16:55 53.37575 -2.22950 785 ft 143 kts 227°
2026-05-07 16:55 53.36949 -2.24237 545 ft 142 kts 229°
2026-05-07 16:55 53.36341 -2.25504 352 ft 142 kts 229°
2026-05-07 16:56 53.35752 -2.26709 269 ft 113 kts 231°
2026-05-07 16:56 53.35411 -2.27415 261 ft 49 kts 232°
2026-05-07 16:56 53.35247 -2.27992 244 ft 8 kts 261°
2026-05-07 16:57 53.35234 -2.28129 239 ft 13 kts 261°
2026-05-07 16:57 53.35232 -2.28182 238 ft 5 kts 280°
2026-05-07 16:57 53.35266 -2.28224 237 ft 7 kts 357°
2026-05-07 16:57 53.35286 -2.28214 238 ft 0 kts 33°
2026-05-07 16:58 53.35305 -2.28185 239 ft 9 kts 44°
2026-05-07 16:58 53.35380 -2.28053 244 ft 22 kts 47°
2026-05-07 16:58 53.35482 -2.27881 248 ft 12 kts 43°
2026-05-07 16:58 53.35561 -2.27756 250 ft 10 kts 43°
2026-05-07 16:59 53.35618 -2.27660 250 ft 10 kts 45°
2026-05-07 16:59 53.35672 -2.27566 250 ft 13 kts 46°
2026-05-07 16:59 53.35729 -2.27443 250 ft 12 kts 52°
2026-05-07 16:59 53.35781 -2.27318 250 ft 11 kts 79°
2026-05-07 17:00 53.35751 -2.27213 254 ft 8 kts 108°
2026-05-07 17:00 53.35760 -2.27161 255 ft 5 kts 50°
2026-05-07 17:00 53.35790 -2.27102 255 ft 8 kts 49°
2026-05-07 17:00 53.35829 -2.27012 255 ft 10 kts 63°
2026-05-07 17:01 53.35848 -2.26953 256 ft 1 kts 58°
2026-05-07 17:01 53.35851 -2.26946 256 ft 0 kts 57°
2026-05-07 17:03 53.35859 -2.26925 256 ft 7 kts 57°
2026-05-07 17:03 53.35927 -2.26835 253 ft 9 kts 351°
2026-05-07 17:04 53.35997 -2.26824 250 ft 4 kts 349°
2026-05-07 17:04 53.36022 -2.26859 250 ft 6 kts 313°
2026-05-07 17:04 53.36036 -2.26883 250 ft 1 kts 314°
2026-05-07 17:04 53.36036 -2.26884 250 ft 0 kts 314°